When you browse on this site, cookies collect data to enhance your experience and personalize the content and advertising you see.
Visit our Privacy Policy to learn more. By continuing to use the site, you agree to this use of cookies and data.
  • In United Kingdom
  • List of Countries
  • For 7 days
  • Water Temperature
  • Weather Map
  • Weather Widgets
  • user-avatar
    Login

    Hourly Weather Wiesbaden

    Today, 21 August, Wednesday

    Time Temperature Precipitation Wind Pressure Humidity
    00:00 +16°C° 0 mm 1 mps 756 mmHg 71%
    01:00 +15°C° 0 mm 1 mps 756 mmHg 73%
    02:00 +15°C° 0 mm 1 mps 756 mmHg 75%
    03:00 +14°C° 0 mm 1 mps 756 mmHg 77%
    04:00 +13°C° 0 mm 0 mps 756 mmHg 78%
    05:00 +13°C° 0 mm 0 mps 756 mmHg 76%
    06:00 +14°C° 0 mm 0 mps 757 mmHg 74%
    07:00 +15°C° 0 mm 0 mps 757 mmHg 72%
    08:00 +17°C° 0 mm 0 mps 757 mmHg 65%
    09:00 +19°C° 0 mm 0 mps 757 mmHg 58%
    10:00 +21°C° 0 mm 0 mps 757 mmHg 50%
    11:00 +22°C° 0 mm 0 mps 757 mmHg 46%
    12:00 +25°C° 0 mm 1 mps 757 mmHg 41%
    13:00 +26°C° 0 mm 1 mps 756 mmHg 37%
    14:00 +26°C° 0 mm 1 mps 756 mmHg 36%
    15:00 +26°C° 0 mm 1 mps 756 mmHg 35%
    16:00 +26°C° 0 mm 1 mps 755 mmHg 34%
    17:00 +25°C° 0 mm 1 mps 755 mmHg 39%
    18:00 +23°C° 0 mm 1 mps 755 mmHg 45%
    19:00 +22°C° 0 mm 1 mps 755 mmHg 50%
    20:00 +21°C° 0 mm 1 mps 755 mmHg 52%
    21:00 +20°C° 0 mm 1 mps 755 mmHg 54%
    22:00 +19°C° 0 mm 1 mps 755 mmHg 56%
    23:00 +18°C° 0 mm 1 mps 755 mmHg 58%

    Tomorrow, 22 August, Thursday

    Time Temperature Precipitation Wind Pressure Humidity
    00:00 +18°C° 0 mm 1 mps 755 mmHg 60%
    01:00 +16°C° 0 mm 1 mps 755 mmHg 62%
    02:00 +16°C° 0 mm 1 mps 755 mmHg 64%
    03:00 +15°C° 0 mm 1 mps 755 mmHg 65%
    04:00 +15°C° 0 mm 1 mps 755 mmHg 67%
    05:00 +15°C° 0 mm 1 mps 755 mmHg 67%
    06:00 +16°C° 0 mm 1 mps 755 mmHg 66%
    07:00 +16°C° 0 mm 1 mps 755 mmHg 66%
    08:00 +19°C° 0 mm 1 mps 755 mmHg 61%
    09:00 +21°C° 0 mm 1 mps 755 mmHg 56%
    10:00 +23°C° 0 mm 1 mps 755 mmHg 52%
    11:00 +25°C° 0 mm 1 mps 755 mmHg 47%
    12:00 +26°C° 0 mm 1 mps 755 mmHg 42%
    13:00 +27°C° 0 mm 1 mps 754 mmHg 37%
    14:00 +27°C° 0 mm 1 mps 754 mmHg 35%
    15:00 +28°C° 0 mm 1 mps 754 mmHg 34%
    16:00 +28°C° 0 mm 1 mps 754 mmHg 33%
    17:00 +27°C° 0 mm 1 mps 754 mmHg 38%
    18:00 +25°C° 0 mm 1 mps 754 mmHg 43%
    19:00 +24°C° 0 mm 1 mps 753 mmHg 48%
    20:00 +23°C° 0 mm 1 mps 754 mmHg 50%
    21:00 +22°C° 0 mm 1 mps 754 mmHg 53%
    22:00 +19°C° 0 mm 0 mps 755 mmHg 55%
    23:00 +20°C° 0 mm 1 mps 755 mmHg 57%

    Day after tomorrow, 23 August, Friday

    Time Temperature Precipitation Wind Pressure Humidity
    00:00 +20°C° 0 mm 1 mps 755 mmHg 58%
    01:00 +19°C° 0 mm 1 mps 754 mmHg 60%
    02:00 +19°C° 0 mm 1 mps 754 mmHg 61%
    03:00 +18°C° 0 mm 1 mps 754 mmHg 63%
    04:00 +18°C° 0 mm 1 mps 754 mmHg 64%
    05:00 +18°C° 0 mm 1 mps 754 mmHg 64%
    06:00 +19°C° 0 mm 1 mps 754 mmHg 63%
    07:00 +19°C° 0 mm 1 mps 754 mmHg 63%
    08:00 +21°C° 0 mm 1 mps 754 mmHg 58%
    09:00 +23°C° 0 mm 1 mps 754 mmHg 52%
    10:00 +25°C° 0 mm 1 mps 755 mmHg 47%
    11:00 +26°C° 0 mm 2 mps 754 mmHg 43%
    12:00 +27°C° 0 mm 2 mps 754 mmHg 40%
    13:00 +28°C° 0 mm 2 mps 753 mmHg 36%
    14:00 +29°C° 0 mm 2 mps 753 mmHg 35%
    15:00 +29°C° 0 mm 2 mps 753 mmHg 35%
    16:00 +29°C° 0 mm 2 mps 752 mmHg 34%
    17:00 +28°C° 0 mm 2 mps 752 mmHg 39%
    18:00 +26°C° 0 mm 2 mps 752 mmHg 45%
    19:00 +25°C° 0 mm 1 mps 752 mmHg 50%
    20:00 +24°C° 0 mm 1 mps 752 mmHg 52%
    21:00 +22°C° 0 mm 1 mps 752 mmHg 54%
    22:00 +21°C° 0 mm 1 mps 753 mmHg 56%
    23:00 +21°C° 0 mm 1 mps 752 mmHg 59%

    24 August, Saturday

    Time Temperature Precipitation Wind Pressure Humidity
    00:00 +20°C° 0 mm 1 mps 752 mmHg 61%
    01:00 +19°C° 0 mm 1 mps 752 mmHg 63%
    02:00 +19°C° 0 mm 1 mps 752 mmHg 65%
    03:00 +19°C° 0 mm 1 mps 752 mmHg 66%
    04:00 +18°C° 0 mm 1 mps 752 mmHg 68%
    05:00 +19°C° 0 mm 1 mps 752 mmHg 67%
    06:00 +19°C° 0 mm 1 mps 751 mmHg 67%
    07:00 +19°C° 0 mm 1 mps 751 mmHg 66%
    08:00 +21°C° 0 mm 1 mps 752 mmHg 60%
    09:00 +23°C° 0 mm 1 mps 752 mmHg 54%
    10:00 +25°C° 0 mm 1 mps 752 mmHg 49%
    11:00 +27°C° 0 mm 2 mps 751 mmHg 44%
    12:00 +28°C° 0 mm 2 mps 751 mmHg 39%
    13:00 +29°C° 0 mm 2 mps 751 mmHg 35%
    14:00 +30°C° 0 mm 2 mps 750 mmHg 34%
    15:00 +30°C° 0 mm 2 mps 750 mmHg 34%
    16:00 +30°C° 0 mm 1 mps 750 mmHg 34%
    17:00 +29°C° 0 mm 1 mps 750 mmHg 40%
    18:00 +28°C° 0 mm 1 mps 749 mmHg 46%
    19:00 +26°C° 0 mm 1 mps 749 mmHg 52%
    20:00 +25°C° 0 mm 1 mps 749 mmHg 55%
    21:00 +24°C° 0 mm 1 mps 750 mmHg 58%
    22:00 +23°C° 0 mm 1 mps 750 mmHg 61%
    23:00 +22°C° 0 mm 1 mps 750 mmHg 64%

    25 August, Sunday

    Time Temperature Precipitation Wind Pressure Humidity
    00:00 +22°C° 0 mm 1 mps 750 mmHg 67%
    01:00 +21°C° 0 mm 1 mps 749 mmHg 69%
    02:00 +21°C° 0 mm 1 mps 749 mmHg 72%
    03:00 +21°C° 0 mm 1 mps 749 mmHg 74%
    04:00 +20°C° 0 mm 1 mps 749 mmHg 77%
    05:00 +21°C° 0 mm 1 mps 749 mmHg 76%
    06:00 +21°C° 0 mm 1 mps 749 mmHg 76%
    07:00 +20°C° 0 mm 0 mps 749 mmHg 75%
    08:00 +24°C° 0 mm 1 mps 750 mmHg 69%
    09:00 +26°C° 0 mm 1 mps 750 mmHg 63%
    10:00 +28°C° 0 mm 1 mps 750 mmHg 57%
    11:00 +29°C° 0 mm 1 mps 750 mmHg 51%
    12:00 +30°C° 0 mm 1 mps 749 mmHg 46%
    13:00 +32°C° 0 mm 1 mps 749 mmHg 41%
    14:00 +32°C° 0 mm 1 mps 749 mmHg 39%
    15:00 +32°C° 0 mm 1 mps 749 mmHg 37%
    16:00 +32°C° 0 mm 1 mps 749 mmHg 34%
    17:00 +31°C° 0 mm 1 mps 749 mmHg 39%
    18:00 +29°C° 0 mm 1 mps 749 mmHg 44%
    19:00 +26°C° 0 mm 0 mps 749 mmHg 49%
    20:00 +24°C° 0 mm 0 mps 749 mmHg 52%
    21:00 +23°C° 0 mm 0 mps 749 mmHg 54%
    22:00 +22°C° 0 mm 0 mps 750 mmHg 57%
    23:00 +22°C° 0 mm 0 mps 750 mmHg 59%

    26 August, Monday

    Time Temperature Precipitation Wind Pressure Humidity
    00:00 +21°C° 0 mm 0 mps 750 mmHg 60%
    01:00 +21°C° 0 mm 0 mps 750 mmHg 62%
    02:00 +21°C° 0 mm 0 mps 750 mmHg 62%
    03:00 +20°C° 0 mm 0 mps 749 mmHg 63%
    04:00 +20°C° 0 mm 0 mps 749 mmHg 64%
    05:00 +20°C° 0 mm 0 mps 750 mmHg 63%
    06:00 +23°C° 0 mm 1 mps 750 mmHg 63%
    07:00 +23°C° 0 mm 1 mps 750 mmHg 62%
    08:00 +25°C° 0 mm 1 mps 750 mmHg 56%
    09:00 +27°C° 0 mm 1 mps 751 mmHg 50%
    10:00 +29°C° 0 mm 1 mps 751 mmHg 44%
    11:00 +30°C° 0 mm 2 mps 751 mmHg 41%
    12:00 +32°C° 0 mm 2 mps 751 mmHg 37%
    13:00 +34°C° 0 mm 2 mps 751 mmHg 33%
    14:00 +34°C° 0 mm 2 mps 750 mmHg 33%
    15:00 +35°C° 0 mm 2 mps 750 mmHg 32%
    16:00 +35°C° 0 mm 2 mps 750 mmHg 32%
    17:00 +32°C° 0 mm 2 mps 750 mmHg 37%
    18:00 +31°C° 0 mm 1 mps 750 mmHg 42%
    19:00 +29°C° 0 mm 1 mps 750 mmHg 47%
    20:00 +28°C° 0.4 mm 1 mps 750 mmHg 53%
    21:00 +26°C° 0.4 mm 1 mps 751 mmHg 59%
    22:00 +25°C° 0.4 mm 1 mps 751 mmHg 65%
    23:00 +24°C° 0.5 mm 1 mps 751 mmHg 69%
    Show more